Regional Weather Roundup
Issued by NWS Midland/Odessa, TX

Skip options and go directly to product.
Home | Oldest Version | Next Version | Current Version | All | Text Only | Save Text | Print | Product List | Glossary On

Skip product version selection by date and time.   
314
ASUS44 KMAF 311801
RWRMAF
MIDLAND AREA WEATHER ROUNDUP
NATIONAL WEATHER SERVICE MIDLAND TX
1200 PM CST SAT JAN 31 2015

...IN SOUTHWEST TEXAS AND SOUTHEAST NEW MEXICO...

CITY           SKY/WX    TMP DP  RH WIND       PRES   REMARKS
ALPINE         PTSUNNY   55  47  73 SW15G23   30.02S
ANDREWS        DRZL/FOG  43  43 100 S5        29.98F VSB 1
ARTESIA        CLOUDY    41  41 100 CALM      29.97F
BIG SPRING     CLOUDY    49  46  90 SE8       30.02F
CARLSBAD       CLOUDY    44  41  89 N6        29.95F FOG
DRYDEN           N/A     50  49  96 SE7       29.99F
FORT STOCKTON  CLOUDY    54  48  80 SE15      29.95F
GUAD PASS      FOG       45  44  97 SW10      29.96F VSB<1/4 WCI  40
HOBBS          FOG       43  43 100 S10       29.97F VSB 1/4 WCI  37
MARFA          CLOUDY    52  48  87 S20       29.98F
MIDLAND AIRPK  DRIZZLE   49  49 100 S9        29.99F
MIDLAND INTL   CLOUDY    48  47  96 S14       29.97F
ODESSA         CLOUDY    48  46  93 S20       29.98F FOG
PECOS          CLOUDY    47  44  91 CALM      29.97S
PRESIDIO       FAIR      56  52  87 CALM      29.95F
SEMINOLE       LGT RAIN  42  42 100 SE5       29.98F WCI  39
SNYDER         DRIZZLE  N/A N/A N/A S8        30.01F
WINK           CLOUDY    50  44  80 SE10      29.95F
$$
...OTHER STATIONS IN TEXAS...

CITY           SKY/WX    TMP DP  RH WIND       PRES   REMARKS
ABILENE        LGT RAIN  46  44  93 S13       30.05F FOG
AMARILLO       MIX PCPN  35  34  96 S10       29.99F WCI  27
AUSTIN         LGT RAIN  53  49  86 SE5       30.11F FOG
BROWNSVILLE    PTSUNNY   73  62  68 SE18G26   30.06F
CORPUS CHRISTI CLOUDY    70  63  78 SE22G28   30.07F
DALLAS FTW     CLOUDY    51  34  52 SE12      30.13F
DEL RIO        CLOUDY    51  50  96 SE6       30.02F FOG
EL PASO        CLOUDY    48  44  86 N5        29.92S
HOUSTON INT    PTSUNNY   60  47  61 SE12      30.17F
LUBBOCK        LGT RAIN  39  39 100 SE8       29.98F FOG     WCI  33
SAN ANGELO     CLOUDY    50  48  93 NE6       30.01F FOG
SAN ANTONIO    DRZL/FOG  54  53  97 E8        30.08F VSB 1
WACO           LGT RAIN  49  40  71 SE9       30.13F
WICHITA FALLS  NOT AVBL
$$
...OTHER LOCATIONS IN NEW MEXICO...

CITY           SKY/WX    TMP DP  RH WIND       PRES   REMARKS
ALAMAGORDO     CLOUDY    45  45 100 N6        29.95S
ALBUQUERQUE    CLOUDY    36  34  92 NW5       29.95R FOG     WCI  32
CANNON AFB     CLOUDY    36  36 100 CALM      29.96F FOG
CLOVIS         CLOUDY    36  34  93 S7        29.96F WCI  30
HOLLOMAN AFB   CLOUDY    44  44 100 N2        29.93F
ROSWELL        CLOUDY    40  38  93 CALM      29.95F
RUIDOSO        FOG       36  36 100 NE3       29.95F VSB<1/4
SANTA FE       LGT SNOW  32  28  85 SE6       29.91F FOG     WCI  26
TRUTH OR CONSE CLOUDY    44  42  93 CALM      29.92F
TUCUMCARI      CLOUDY    38  35  89 SW5       29.94F WCI  34
$$

USA.gov is the U.S. government's official web portal to all federal, state and local government web resources and services.